Sheridan, WY

2:28 AM MDT on May 22, 2018 (GMT -0600)
Sheridan County

Weather History for KSHR - March, 2013

Change the Weather History Date:

Wednesday, March 6, 2013

  Actual Average Record
Temperature  
Mean Temperature 26 °F 32 °F  
Max Temperature 41 °F 45 °F 73 °F (2016)
Min Temperature 11 °F 19 °F -17 °F (1920)
Degree Days  
Heating Degree Days 39 33  
Month to date heating degree days 207 203  
Since 1 July heating degree days 5530 5738  
Cooling Degree Days 0 0  
Month to date cooling degree days 0 0  
Year to date cooling degree days 0 0  
Moisture  
Dew Point 18 °F    
Average Humidity 72    
Maximum Humidity 88    
Minimum Humidity 56    
Precipitation  
Precipitation 0.00 in 0.03 in 0.60 in (1924)
Month to date precipitation 0.01 0.14  
Year to date precipitation 1.76 1.24  
Sea Level Pressure  
Sea Level Pressure 29.94 in    
Wind  
Wind Speed 2 mph (WSW)    
Max Wind Speed 10 mph    
Max Gust Speed 14 mph    
Visibility 10 miles    
Events      
T = Trace of Precipitation, MM = Missing Value Source: NWS Daily Summary

Daily Weather History Graph

Daily Weather History Graph

Search for Another Location

Airport or City:

Astronomy

Mar. 06, 2013 Rise Set
Actual Time 6:36 AM MST 6:02 PM MST
Civil Twilight 6:06 AM MST 6:31 PM MST
Nautical Twilight 5:33 AM MST 7:05 PM MST
Astronomical Twilight 4:59 AM MST 7:39 PM MST
Moon 2:58 AM MST (3/6) 12:37 PM MST (3/6)
Length of Visible Light 12h 24m
Length of Day
11h 26m
Waning Crescent, 29% of the Moon is Illuminated
Mar 6
Waning Crescent
Mar 11
New
Mar 19
First Quarter
Mar 27
Full
Apr 2
Last Quarter

Hourly Weather History & Observations

Time (MST) Temp. Windchill Dew Point Humidity Pressure Visibility Wind Dir Wind Speed Gust Speed Precip Events Conditions
12:53 AM 17.1 °F - 12.0 °F 81% 30.14 in 10.0 mi Calm Calm - N/A   Clear
1:53 AM 14.0 °F 6.5 °F 10.0 °F 84% 30.13 in 10.0 mi SW 4.6 mph - N/A   Clear
2:53 AM 16.0 °F - 12.0 °F 84% 30.09 in 10.0 mi North - - N/A   Clear
3:53 AM 14.0 °F - 10.0 °F 84% 30.09 in 10.0 mi Calm Calm - N/A   Clear
4:53 AM 12.9 °F 6.9 °F 9.0 °F 84% 30.10 in 10.0 mi Variable 3.5 mph - N/A   Clear
5:53 AM 14.0 °F - 10.0 °F 84% 30.09 in 10.0 mi Calm Calm - N/A   Clear
6:53 AM 12.0 °F - 9.0 °F 88% 30.09 in 10.0 mi Calm Calm - N/A   Clear
7:53 AM 17.1 °F - 12.9 °F 84% 30.06 in 10.0 mi Calm Calm - N/A   Clear
8:53 AM 21.0 °F - 15.1 °F 78% 30.06 in 10.0 mi Calm Calm - N/A   Clear
9:53 AM 25.0 °F - 17.1 °F 72% 30.02 in 10.0 mi Calm Calm - N/A   Clear
10:53 AM 26.1 °F - 17.1 °F 69% 29.99 in 10.0 mi Calm Calm - N/A   Clear
11:53 AM 30.0 °F - 18.0 °F 61% 29.94 in 10.0 mi Calm Calm - N/A   Clear
12:53 PM 35.1 °F 31.0 °F 21.0 °F 57% 29.88 in 10.0 mi West 4.6 mph - N/A   Clear
1:53 PM 36.0 °F - 21.9 °F 57% 29.86 in 10.0 mi Calm Calm - N/A   Clear
2:53 PM 37.4 °F 33.8 °F 24.8 °F 60% 29.69 in 10.0 mi SSW 4.6 mph - N/A   Clear
3:53 PM 39.9 °F 35.8 °F 27.0 °F 60% 29.80 in 10.0 mi West 5.8 mph - N/A   Clear
4:53 PM 37.9 °F - 28.0 °F 68% 29.78 in 10.0 mi Calm Calm - N/A   Clear
5:53 PM 33.1 °F 28.7 °F 27.0 °F 78% 29.80 in 10.0 mi SSW 4.6 mph - N/A   Clear
6:53 PM 30.9 °F - 25.0 °F 79% 29.82 in 10.0 mi Calm Calm - N/A   Clear
7:53 PM 30.9 °F - 24.1 °F 76% 29.83 in 10.0 mi Calm Calm - N/A   Clear
8:53 PM 32.0 °F 25.6 °F 24.1 °F 73% 29.83 in 10.0 mi NW 6.9 mph - N/A   Clear
9:53 PM 30.0 °F - 24.1 °F 79% 29.82 in 10.0 mi Calm Calm - N/A   Clear
10:53 PM 27.0 °F - 21.0 °F 78% 29.84 in 10.0 mi Calm Calm - N/A   Clear
11:53 PM 26.1 °F - 21.0 °F 81% 29.86 in 10.0 mi Calm Calm - N/A   Clear